Vertical_Velocity
2 2 7 2 5 7 -10 -4 4 -3 -3 -2 4 13 20 9 5 8 2 3 0 0 -0 3 -2 0 3 2 0 -0 5 0 -2 -0 2 -1 -1 -0 0 -1 -3 7 -3
2 -0 3 -25 20 -1 -4 -5 -4 -1 2 8 7 4 -20 20 11 -7 5 6 4 0 2 -3 0 -0 1 -0 1 -0 -3 2 1 -3 2 -1 -1 -1 -0 -1 -1 5 1
-0 -1 2 -1 2 17 2 2 2 -0 0 3 10 9 -5 1 6 -3 4 -2 2 2 1 0 1 -0 -1 0 -2 -0 5 -2 2 -3 -0 -3 -2 1 1 -1 -1 2 2
4 10 5 -1 -4 1 9 -4 -0 -1 4 1 -2 -4 -8 -3 -16 -8 -2 0 8 2 4 1 3 1 0 -4 3 -1 3 5 2 -1 1 -1 -2 -2 -1 -1 -1 2 2
1 3 -6 2 13 -9 -17 -6 5 5 -1 5 1 1 0 11 -1 -0 -1 -1 4 3 2 5 -3 -2 2 -2 -0 -9 1 -1 1 1 1 1 -2 -2 -1 -1 -2 1 0
1 2 2 -1 9 19 6 0 -2 2 -2 0 -0 8 -7 -14 -5 -6 -1 -6 3 -1 7 3 0 0 -0 -7 1 -0 2 -0 2 -0 1 2 0 -1 0 -0 -1 -2 -0
-1 3 10 9 -3 -9 2 4 5 -2 1 5 3 2 17 6 3 0 -5 -4 -3 -6 -9 -2 -7 -4 -2 1 2 -4 2 -2 -1 1 3 1 1 1 2 -2 -0 -1 1
4 -1 2 6 3 2 8 13 9 7 -4 1 -2 5 0 5 8 11 -3 -3 -8 7 5 -4 -1 -1 2 -1 3 -3 2 1 -2 2 -0 -1 1 0 4 -2 0 -1 -2
4 5 2 1 5 3 3 14 -3 11 1 1 3 1 -1 2 2 3 -5 3 10 3 7 5 -1 -2 8 -2 2 2 -2 3 -2 -2 2 1 -1 -0 2 -0 -2 0 -1
4 4 -3 3 2 5 1 1 3 -5 1 -1 -0 -8 -2 -5 9 4 1 -0 11 6 4 5 -1 0 1 2 3 1 -2 3 1 -2 -0 2 -1 -2 2 2 0 -1 2
-1 5 4 2 -2 3 -0 1 1 5 24 -6 0 -2 -4 5 3 -3 -3 2 9 4 -3 0 -1 -0 4 4 1 -1 5 2 -1 -2 1 1 0 -1 -0 1 1 -2 -2
-0 2 8 2 -0 0 5 4 1 2 1 6 17 4 6 -3 -5 -9 -2 -0 -8 -4 4 2 1 5 0 -2 2 0 5 -2 -3 3 -0 2 2 -3 0 -1 1 0 -3
3 -2 5 -0 4 -0 4 4 2 1 3 2 4 5 5 -6 -4 -3 -3 0 -2 -3 2 -3 2 2 -0 -1 4 -3 -0 0 6 -0 -1 3 3 -1 -2 -3 -0 4 -5
2 -0 5 1 0 -2 6 3 4 -0 3 1 0 7 -2 -2 1 0 -2 -3 -7 -6 -2 -3 2 -4 -1 -1 -4 2 3 0 2 2 1 2 -1 -0 4 -2 2 2 -4
-3 4 0 1 1 -1 3 1 2 1 4 5 1 2 -3 -2 3 -6 -4 0 -1 -4 6 4 -0 0 -2 1 -1 -1 -1 4 -2 3 2 -1 3 4 5 1 1 1 -2
2 -2 2 -1 -1 -2 -2 2 2 3 1 3 2 1 3 1 2 -2 -3 3 -0 6 20 12 3 -0 -2 -0 6 1 -5 1 -0 1 2 -0 4 0 6 -1 1 -3 3
-0 -4 -1 2 -0 -4 -2 1 -0 2 3 1 -0 1 4 1 -0 4 3 -1 -11 1 -8 -3 -0 0 -1 3 -3 1 3 -1 -2 -5 -2 3 4 4 6 -1 6 2 -2
-2 -3 0 -0 3 2 -1 3 -0 2 0 1 -1 4 4 1 5 5 1 -0 -4 -7 -1 4 2 -7 -2 1 1 0 -4 -1 -3 0 1 5 3 6 3 5 0 3 -2
2 1 2 -2 -2 -2 -4 -2 0 3 2 -0 -1 3 2 1 4 5 3 5 -3 0 -10 -3 -5 -4 1 3 -3 3 -3 -3 -2 -3 -1 7 6 7 3 5 3 0 -0
2 -3 -2 -2 0 -2 1 2 1 3 1 -4 -1 0 4 -3 1 4 -3 6 5 0 1 3 7 6 3 3 5 5 -1 2 -1 4 7 -1 -6 2 4 0 3 -1 -1
-2 -2 -3 -3 3 -3 -1 3 1 -0 -2 -3 -2 1 1 -3 1 3 4 -3 0 4 -1 3 -2 -1 -4 4 5 1 -2 -2 0 -2 -4 -2 4 4 1 4 0 -1 13
-4 -1 -2 1 2 -1 -1 1 -1 1 0 -0 -2 -2 -1 -4 2 -0 3 2 -2 0 -2 -2 0 1 4 5 2 4 1 8 4 -3 1 -1 -2 -1 6 2 7 5 1
2 2 4 1 2 2 2 3 2 0 -2 -3 -2 1 -2 -4 1 -2 -1 1 0 0 1 -2 -1 0 -1 -0 2 0 -1 -3 -1 -1 -1 1 1 6 8 5 5 -2 3
-3 2 1 -0 -2 2 5 3 -1 -1 -0 -0 -1 1 2 0 3 -0 2 -0 0 1 -0 -0 -1 -1 4 4 3 -1 -6 0 -2 0 1 -1 2 5 2 7 -8 5 3
-3 1 -1 -0 2 -0 -1 -1 -2 -3 -2 -1 -2 -1 0 0 0 1 0 -3 -2 1 4 4 0 1 -1 -8 4 3 -2 -0 3 2 4 -1 4 1 1 3 6 1 2
2 2 5 5 2 -3 -2 -3 2 1 -0 -3 -2 -0 1 -1 -1 -0 0 -0 -2 0 -1 -1 -2 1 0 -1 -3 -3 1 3 2 3 -0 -1 0 1 0 1 -1 -1 2
Height
1382 1386 1393 1398 1406 1411 1416 1420 1423 1428 1434 1440 1439 1445 1445 1454 1464 1477 1487 1494 1500 1505 1511 1517 1522 1527 1532 1536 1541 1546 1549 1551 1556 1559 1563 1566 1569 1572 1573 1574 1575 1576 1575
1378 1382 1389 1396 1403 1409 1413 1416 1420 1425 1431 1435 1439 1444 1442 1452 1455 1473 1486 1492 1497 1503 1509 1514 1520 1524 1530 1534 1539 1544 1546 1550 1553 1557 1561 1565 1569 1570 1571 1572 1573 1575 1574
1376 1378 1384 1390 1395 1402 1407 1411 1416 1422 1427 1432 1436 1438 1447 1453 1454 1472 1481 1487 1495 1500 1505 1511 1517 1522 1528 1532 1537 1542 1547 1547 1549 1554 1558 1561 1563 1566 1568 1570 1571 1573 1573
1375 1378 1380 1386 1391 1396 1403 1411 1416 1419 1424 1428 1431 1436 1442 1450 1456 1467 1477 1484 1491 1497 1503 1509 1514 1520 1525 1530 1535 1541 1545 1547 1549 1552 1555 1557 1561 1563 1566 1568 1570 1572 1571
1372 1375 1379 1382 1386 1394 1403 1410 1415 1418 1421 1424 1429 1434 1441 1450 1456 1464 1472 1478 1486 1493 1500 1505 1511 1516 1522 1528 1533 1538 1541 1546 1548 1550 1553 1556 1559 1562 1564 1565 1568 1570 1569
1369 1373 1377 1381 1388 1392 1401 1409 1413 1414 1419 1425 1427 1431 1436 1442 1451 1459 1466 1473 1481 1488 1494 1501 1507 1513 1518 1524 1529 1534 1538 1543 1545 1549 1552 1554 1557 1559 1561 1563 1566 1568 1568
1365 1366 1372 1378 1383 1390 1397 1402 1409 1411 1416 1421 1424 1427 1427 1437 1444 1451 1461 1466 1475 1482 1489 1496 1502 1507 1513 1519 1525 1530 1534 1539 1542 1546 1549 1552 1555 1557 1558 1560 1563 1565 1566
1361 1367 1371 1375 1379 1385 1392 1399 1404 1406 1411 1417 1422 1425 1432 1435 1440 1446 1455 1463 1469 1477 1484 1490 1498 1503 1509 1515 1520 1526 1529 1534 1538 1542 1545 1548 1551 1554 1554 1557 1560 1561 1562
1370 1366 1370 1372 1373 1379 1385 1392 1397 1401 1407 1412 1418 1423 1427 1432 1436 1444 1451 1459 1463 1472 1479 1486 1493 1499 1504 1509 1514 1519 1523 1529 1532 1538 1541 1544 1547 1550 1551 1553 1555 1558 1558
1371 1369 1374 1373 1374 1376 1381 1387 1393 1400 1404 1409 1416 1419 1424 1432 1435 1441 1448 1453 1458 1467 1475 1481 1488 1495 1500 1504 1508 1513 1518 1522 1526 1531 1535 1538 1541 1546 1548 1549 1551 1553 1555
1380 1377 1377 1373 1374 1376 1380 1385 1391 1395 1402 1406 1412 1417 1424 1428 1432 1439 1445 1450 1455 1462 1471 1478 1484 1489 1493 1498 1502 1506 1511 1515 1519 1524 1529 1533 1536 1540 1542 1545 1546 1548 1550
1388 1382 1380 1374 1377 1377 1381 1382 1388 1393 1397 1403 1407 1414 1417 1423 1428 1436 1441 1446 1454 1460 1467 1474 1479 1482 1486 1490 1495 1498 1502 1507 1511 1516 1521 1526 1530 1533 1535 1539 1541 1543 1544
1387 1380 1383 1375 1377 1379 1381 1382 1386 1389 1393 1398 1404 1408 1410 1416 1424 1430 1437 1443 1449 1456 1463 1467 1471 1474 1478 1482 1487 1491 1494 1499 1504 1509 1514 1519 1522 1526 1529 1533 1536 1536 1539
1386 1390 1386 1377 1380 1381 1384 1382 1384 1387 1390 1393 1400 1404 1407 1412 1421 1425 1431 1439 1445 1450 1457 1460 1466 1467 1471 1475 1480 1483 1485 1490 1495 1500 1506 1511 1515 1519 1523 1526 1529 1530 1533
1393 1390 1384 1382 1383 1382 1382 1383 1385 1385 1386 1388 1395 1400 1404 1410 1416 1421 1426 1433 1438 1443 1447 1451 1456 1458 1462 1466 1470 1474 1478 1481 1486 1492 1497 1502 1507 1512 1516 1518 1522 1523 1527
1395 1391 1389 1386 1382 1381 1382 1383 1383 1383 1384 1385 1389 1394 1399 1404 1410 1417 1422 1427 1431 1436 1441 1441 1446 1451 1455 1460 1463 1467 1470 1474 1478 1484 1489 1495 1499 1503 1506 1510 1514 1515 1518
1396 1395 1397 1393 1388 1386 1384 1382 1382 1382 1383 1384 1387 1393 1395 1399 1407 1413 1416 1419 1424 1429 1433 1437 1441 1445 1449 1451 1455 1460 1462 1467 1471 1476 1482 1485 1489 1494 1498 1501 1505 1508 1510
1401 1400 1394 1390 1389 1388 1386 1383 1382 1382 1381 1382 1384 1387 1389 1392 1396 1401 1407 1413 1418 1423 1426 1429 1434 1439 1443 1446 1450 1453 1456 1460 1463 1468 1473 1476 1481 1484 1489 1493 1497 1500 1504
1400 1397 1394 1390 1389 1388 1389 1387 1385 1381 1378 1379 1382 1386 1384 1388 1392 1396 1401 1407 1411 1414 1420 1422 1426 1431 1436 1438 1443 1446 1449 1452 1455 1460 1465 1467 1471 1476 1481 1485 1488 1492 1498
1399 1397 1395 1393 1393 1390 1388 1386 1381 1378 1376 1378 1382 1384 1381 1386 1390 1392 1395 1401 1404 1410 1413 1418 1422 1426 1430 1433 1437 1439 1442 1445 1448 1454 1457 1460 1464 1469 1472 1477 1482 1486 1491
1405 1402 1399 1398 1396 1390 1388 1384 1379 1376 1375 1375 1377 1378 1378 1383 1387 1389 1391 1394 1398 1403 1408 1411 1415 1420 1424 1428 1431 1433 1436 1440 1443 1445 1449 1453 1458 1461 1465 1470 1475 1482 1484
1407 1403 1401 1397 1392 1389 1386 1381 1378 1376 1373 1373 1374 1376 1378 1381 1384 1385 1387 1389 1393 1398 1400 1405 1409 1413 1417 1421 1424 1426 1430 1434 1436 1439 1445 1448 1452 1457 1460 1464 1469 1474 1478
1407 1403 1398 1392 1389 1386 1385 1378 1375 1372 1370 1372 1373 1374 1374 1378 1378 1380 1383 1385 1388 1391 1395 1399 1404 1406 1410 1414 1417 1421 1424 1427 1431 1434 1440 1442 1447 1453 1455 1460 1463 1466 1473
1403 1399 1395 1391 1387 1384 1380 1373 1373 1372 1370 1368 1368 1370 1371 1371 1373 1376 1378 1379 1383 1385 1389 1393 1396 1402 1405 1408 1411 1415 1417 1422 1426 1430 1434 1437 1443 1447 1452 1456 1458 1463 1467
1404 1400 1395 1391 1386 1380 1376 1375 1373 1371 1368 1366 1366 1366 1366 1367 1370 1372 1374 1376 1378 1381 1385 1387 1392 1397 1399 1403 1407 1409 1413 1416 1421 1427 1429 1434 1439 1441 1445 1449 1454 1458 1463
1401 1396 1391 1386 1380 1377 1376 1374 1372 1368 1363 1362 1364 1365 1364 1365 1366 1368 1368 1371 1375 1377 1378 1381 1387 1391 1395 1397 1402 1405 1411 1412 1418 1422 1424 1429 1432 1437 1442 1447 1451 1456 1458